Temp
61 61 61 61 61 60 61 61 61 61 61 61 61 61 62 62 61 57 62 75 73 72 76 74 72 70 69 65 66 62 55 52 55 57 61 64 65 70 74 72 74 77 75 77 78
60 61 61 61 61 60 60 60 61 61 61 61 61 61 61 62 57 62 74 74 73 75 75 70 66 69 64 62 63 61 52 58 64 65 61 66 68 70 71 71 71 73 77 78 77
60 60 60 60 60 60 59 60 60 61 61 61 60 61 61 59 59 71 77 75 73 75 75 73 71 68 59 60 61 57 58 62 68 68 68 68 69 73 70 66 71 71 73 75 74
59 60 60 60 60 59 59 59 60 60 60 60 60 61 61 58 55 72 76 75 74 75 74 71 66 60 56 56 62 57 66 66 69 70 66 68 71 70 71 71 78 76 77 76 74
59 59 59 59 59 59 59 59 59 59 59 59 60 61 58 59 66 75 75 75 75 75 73 68 64 61 55 60 61 60 66 68 69 68 67 70 70 71 70 76 78 78 78 75 75
58 58 58 58 58 58 59 58 58 58 59 60 60 62 60 56 73 76 75 75 74 73 72 70 67 67 61 60 60 66 65 69 64 63 65 68 66 73 74 76 75 77 75 76 76
58 57 57 58 58 58 58 58 58 58 59 61 62 64 60 66 74 74 75 72 75 77 72 72 72 68 65 61 65 64 62 67 65 64 62 71 63 68 71 74 73 74 75 76 76
57 57 57 57 58 58 59 58 57 59 60 62 64 61 60 72 71 70 73 73 75 76 74 75 74 66 62 64 66 59 57 54 63 66 66 68 60 69 72 72 70 72 73 73 72
57 57 57 57 57 58 58 57 59 61 63 64 59 58 61 75 73 77 76 75 76 75 75 84 71 63 64 58 54 55 51 52 62 66 68 63 59 71 70 71 69 71 71 73 72
57 56 56 56 57 57 56 57 61 62 64 67 70 59 65 68 75 77 75 77 75 73 71 68 62 58 55 54 47 50 50 51 55 61 61 59 64 66 68 70 70 71 68 70 71
57 56 56 56 56 56 53 58 60 59 59 61 63 63 70 78 80 75 76 76 73 69 59 61 58 51 56 57 57 56 54 53 59 64 61 58 60 64 66 66 66 66 66 67 70
56 56 56 55 56 55 51 61 61 58 53 66 67 67 74 76 70 74 79 70 65 59 60 58 53 62 62 61 59 57 53 55 61 64 59 57 61 61 63 69 71 69 68 68 66
55 55 55 55 55 54 51 61 61 59 52 63 66 66 68 72 67 68 75 69 63 59 58 55 61 66 65 60 59 55 54 55 58 61 59 57 57 57 62 64 66 67 68 69 68
55 55 55 54 55 47 56 62 58 58 48 57 62 67 69 71 66 76 77 73 62 61 60 57 64 65 60 61 61 52 62 62 60 55 51 54 46 52 57 59 66 66 64 67 67
55 55 55 54 44 48 61 57 60 61 38 63 63 72 67 68 70 70 77 71 63 62 61 59 60 60 58 61 63 60 62 60 58 51 49 53 49 53 55 57 59 56 57 57 59
55 55 54 48 42 48 53 55 59 48 38 59 65 62 62 66 68 69 71 73 70 63 58 60 65 64 64 66 65 66 60 55 50 47 42 47 47 48 49 51 53 55 57 57 57
54 54 52 52 48 50 52 58 46 39 60 58 59 61 58 60 63 66 63 60 57 51 48 57 59 63 68 60 60 57 50 41 41 40 41 47 46 48 53 55 55 56 57 58 58
53 52 48 50 46 49 52 51 36 51 52 62 63 61 58 61 61 62 59 55 56 56 48 49 48 59 65 63 58 53 52 40 37 36 42 48 43 49 56 57 56 59 58 57 55
51 41 41 45 51 49 51 39 42 49 59 58 60 54 54 60 60 59 57 56 61 59 53 47 51 62 66 65 64 53 50 52 43 40 40 43 47 55 56 55 54 53 56 54 54
41 38 43 51 52 49 47 42 47 57 61 59 51 55 50 54 55 54 54 61 61 62 63 56 48 59 64 64 61 57 59 48 42 37 36 41 43 45 51 51 51 50 49 52 50
39 42 53 52 49 49 41 42 50 59 60 56 53 53 54 54 55 52 55 61 63 60 61 54 52 54 57 54 54 53 49 46 44 41 36 34 42 50 52 53 50 50 50 49 48
35 41 53 54 45 40 40 48 54 57 60 59 57 57 55 56 54 54 56 60 65 62 58 56 51 46 53 57 59 54 50 48 41 40 37 38 41 55 54 53 52 51 52 49 49
32 35 51 53 39 39 45 52 56 55 56 56 55 59 57 55 50 56 58 64 65 61 57 56 47 42 47 52 55 52 50 48 44 42 39 36 41 55 55 54 53 51 50 50 48
33 36 44 47 45 44 44 48 50 58 57 58 57 58 54 52 52 53 56 63 62 60 60 57 46 48 44 47 50 48 50 49 47 41 40 41 46 50 51 52 52 51 50 48 48
34 35 39 39 42 43 44 48 48 49 55 56 53 56 54 47 48 49 53 57 62 60 55 53 46 47 49 53 55 53 52 49 47 48 45 48 48 53 53 53 55 52 49 49 48
33 35 38 38 41 42 44 45 49 51 51 52 51 55 55 50 53 52 54 51 52 57 50 49 45 46 46 52 54 52 53 53 52 50 49 49 48 53 53 53 52 51 50 49 49
39 39 37 39 39 40 41 46 50 49 54 56 55 52 52 54 55 52 52 54 54 53 49 50 48 43 40 48 50 45 52 54 50 50 52 46 51 52 51 52 52 51 51 51 49
MSLP
1019.46 1019.06 1018.68 1018.29 1017.86 1017.41 1016.90 1016.39 1015.90 1015.42 1014.99 1014.64 1014.40 1014.25 1014.07 1013.88 1013.52 1013.55 1012.57 1010.22 1010.16 1010.10 1010.28 1010.64 1010.95 1011.15 1011.41 1011.85 1012.07 1012.55 1013.54 1013.97 1013.42 1013.16 1012.29 1012.31 1012.46 1012.62 1012.58 1012.60 1012.69 1012.84 1012.99 1013.08 1013.89
1019.60 1019.18 1018.74 1018.29 1017.84 1017.38 1016.86 1016.33 1015.84 1015.33 1014.89 1014.57 1014.31 1014.10 1013.86 1013.67 1013.31 1012.19 1009.43 1009.39 1009.78 1009.95 1010.32 1010.67 1010.97 1011.08 1011.67 1011.95 1012.31 1012.61 1013.42 1012.93 1012.14 1011.97 1012.00 1012.20 1012.07 1012.33 1012.70 1012.79 1012.89 1012.84 1012.88 1013.07 1013.94
1019.72 1019.27 1018.75 1018.21 1017.70 1017.15 1016.68 1016.18 1015.65 1015.16 1014.74 1014.40 1014.14 1013.93 1013.68 1013.54 1012.82 1009.93 1008.69 1009.00 1009.59 1009.97 1010.13 1010.48 1010.72 1010.97 1011.53 1011.81 1012.09 1012.41 1012.43 1012.01 1011.33 1011.05 1011.31 1011.74 1012.13 1012.14 1012.34 1012.84 1012.22 1012.17 1012.70 1013.28 1014.15
1019.83 1019.30 1018.71 1018.15 1017.56 1016.96 1016.41 1015.91 1015.39 1014.87 1014.52 1014.21 1013.95 1013.72 1013.49 1013.30 1011.65 1008.95 1008.51 1008.71 1009.45 1009.92 1010.16 1010.50 1010.77 1011.16 1011.42 1011.59 1011.61 1011.94 1011.43 1011.15 1010.61 1010.57 1011.14 1011.38 1011.38 1011.78 1011.68 1011.41 1011.29 1011.60 1012.18 1013.06 1014.02
1019.88 1019.30 1018.64 1018.03 1017.40 1016.70 1016.07 1015.56 1015.09 1014.64 1014.29 1014.04 1013.82 1013.61 1013.49 1012.68 1010.56 1008.87 1008.73 1008.86 1009.57 1009.99 1010.24 1010.54 1010.71 1010.98 1011.22 1011.27 1011.42 1011.53 1011.05 1010.60 1010.14 1010.16 1010.51 1010.70 1010.97 1011.20 1010.85 1010.84 1010.89 1011.40 1012.08 1012.85 1013.69
1019.88 1019.31 1018.65 1017.95 1017.20 1016.44 1015.77 1015.20 1014.70 1014.27 1013.94 1013.76 1013.65 1013.53 1013.23 1011.79 1009.01 1008.90 1009.11 1009.36 1009.53 1009.95 1010.25 1010.45 1010.44 1010.50 1010.82 1010.95 1010.95 1010.59 1010.37 1009.79 1009.81 1009.70 1010.34 1010.57 1010.80 1011.05 1010.13 1010.59 1011.06 1011.25 1012.08 1012.71 1013.29
1019.90 1019.29 1018.62 1017.82 1017.00 1016.16 1015.39 1014.76 1014.23 1013.84 1013.55 1013.40 1013.40 1013.38 1012.82 1010.13 1008.86 1009.04 1009.31 1009.33 1009.43 1009.59 1010.02 1010.10 1010.10 1010.42 1010.65 1010.69 1010.45 1010.41 1010.40 1009.63 1009.71 1009.71 1009.97 1010.02 1011.27 1010.46 1010.17 1010.36 1010.96 1011.55 1011.95 1012.52 1012.97
1019.89 1019.21 1018.50 1017.68 1016.79 1015.86 1015.00 1014.24 1013.61 1013.24 1013.18 1013.14 1013.27 1013.23 1011.82 1009.08 1008.97 1009.01 1009.14 1009.34 1009.41 1009.49 1009.68 1009.73 1009.87 1010.32 1010.68 1010.73 1010.80 1010.91 1010.88 1010.64 1009.90 1009.43 1009.95 1009.74 1010.40 1009.71 1010.20 1010.31 1011.09 1011.59 1011.92 1012.48 1012.79
1019.80 1019.13 1018.40 1017.47 1016.59 1015.60 1014.62 1013.85 1013.10 1012.83 1012.95 1013.04 1013.28 1012.90 1010.98 1008.92 1008.76 1008.27 1008.61 1008.88 1009.18 1009.38 1009.46 1009.63 1009.96 1010.69 1011.04 1011.44 1011.96 1011.94 1011.59 1011.09 1010.13 1009.51 1009.58 1010.12 1010.41 1009.48 1010.24 1010.84 1011.38 1011.58 1011.88 1012.20 1012.69
1019.77 1019.10 1018.27 1017.28 1016.37 1015.34 1014.36 1013.44 1013.21 1012.97 1013.15 1013.18 1012.90 1012.82 1010.25 1008.91 1008.19 1008.03 1008.42 1008.70 1009.00 1009.20 1009.63 1009.93 1010.74 1011.28 1011.91 1012.05 1012.55 1012.22 1011.85 1011.40 1010.70 1009.90 1009.74 1009.86 1009.91 1009.90 1009.87 1010.51 1010.69 1011.12 1011.83 1012.16 1012.28
1019.82 1019.11 1018.21 1017.18 1016.21 1015.20 1014.31 1013.46 1013.86 1013.57 1013.06 1012.23 1011.71 1011.02 1009.66 1008.53 1007.84 1007.92 1008.23 1008.71 1009.05 1009.48 1010.08 1010.55 1011.35 1011.68 1011.81 1011.93 1011.82 1011.79 1011.71 1011.51 1010.60 1009.80 1009.77 1009.76 1010.01 1009.82 1009.93 1010.53 1010.74 1011.21 1011.68 1011.83 1011.70
1019.88 1019.16 1018.20 1017.13 1015.96 1015.03 1014.70 1014.48 1014.70 1014.74 1013.29 1011.06 1010.46 1010.12 1009.14 1008.83 1008.97 1008.02 1007.95 1008.71 1009.33 1010.10 1010.49 1011.17 1011.30 1011.12 1011.31 1011.40 1011.51 1011.52 1011.47 1011.16 1010.50 1010.13 1010.04 1010.19 1009.99 1009.88 1010.03 1009.53 1009.76 1010.58 1011.41 1011.78 1012.36
1019.84 1019.20 1018.32 1017.03 1015.78 1015.22 1015.62 1014.63 1014.52 1014.33 1013.68 1010.23 1009.19 1008.75 1008.48 1008.70 1008.68 1007.97 1008.02 1008.43 1009.28 1010.26 1010.78 1011.16 1010.78 1010.56 1010.78 1010.91 1011.13 1011.20 1011.18 1010.90 1011.05 1010.67 1010.59 1010.71 1010.97 1010.73 1010.38 1010.55 1010.92 1011.36 1011.93 1012.14 1012.32
1019.79 1019.23 1018.59 1017.25 1015.97 1016.61 1015.28 1014.24 1014.25 1014.11 1013.30 1009.93 1008.52 1007.40 1007.62 1007.76 1007.88 1007.24 1007.36 1008.10 1009.20 1009.84 1010.76 1010.82 1010.18 1010.14 1010.22 1010.38 1010.46 1010.55 1010.13 1010.55 1011.08 1011.62 1011.90 1011.97 1012.61 1011.79 1011.57 1011.52 1011.72 1012.60 1013.40 1013.36 1013.22
1019.79 1019.21 1018.80 1018.47 1018.07 1016.98 1014.59 1013.93 1013.50 1013.54 1012.38 1008.61 1007.63 1006.75 1007.04 1007.18 1006.80 1006.87 1006.76 1007.55 1008.75 1009.59 1010.39 1010.26 1009.91 1009.67 1009.68 1009.65 1009.88 1010.24 1010.20 1010.97 1011.63 1012.40 1012.76 1012.99 1013.46 1012.83 1012.85 1013.37 1013.98 1014.46 1014.78 1014.82 1014.02
1019.51 1019.14 1018.76 1018.51 1018.34 1015.64 1014.70 1014.07 1013.56 1013.66 1011.21 1008.04 1007.04 1006.87 1007.21 1006.94 1006.56 1006.74 1006.96 1007.28 1008.30 1009.33 1009.93 1009.99 1009.53 1009.28 1009.00 1009.10 1009.49 1009.97 1010.95 1012.20 1013.37 1013.98 1014.83 1014.14 1014.44 1014.53 1014.98 1015.47 1015.67 1016.44 1016.60 1016.27 1015.88
1018.89 1018.54 1018.60 1018.50 1016.48 1015.06 1014.80 1014.49 1014.41 1012.96 1009.90 1008.33 1007.41 1007.12 1007.13 1006.98 1006.83 1006.78 1007.30 1007.94 1008.87 1009.75 1010.39 1010.09 1009.57 1009.00 1008.77 1009.15 1009.77 1010.64 1012.23 1013.85 1015.20 1015.92 1015.86 1014.96 1015.33 1015.32 1015.49 1015.88 1016.23 1016.55 1016.83 1016.98 1017.18
1018.16 1017.45 1016.56 1015.95 1015.35 1015.62 1015.50 1015.18 1014.22 1011.65 1010.09 1008.39 1007.53 1007.08 1007.07 1006.91 1006.94 1007.07 1007.65 1008.47 1008.92 1009.43 1010.70 1010.59 1009.89 1008.97 1008.62 1008.88 1009.63 1010.84 1012.19 1013.90 1015.43 1016.96 1016.39 1015.88 1015.78 1015.46 1015.80 1016.41 1016.86 1017.36 1017.91 1018.09 1018.45
1017.64 1016.89 1016.52 1014.71 1015.09 1015.41 1015.47 1015.32 1013.25 1011.56 1010.01 1008.85 1007.73 1007.27 1006.96 1006.59 1006.71 1007.23 1007.90 1008.25 1008.51 1009.03 1010.02 1010.45 1009.89 1008.78 1008.37 1008.45 1009.23 1011.01 1012.22 1013.19 1015.31 1017.14 1017.20 1016.48 1016.21 1015.90 1016.20 1016.95 1017.59 1018.16 1018.71 1019.31 1019.49
1018.22 1017.41 1015.83 1014.18 1014.75 1015.14 1015.18 1014.44 1012.91 1011.31 1010.08 1009.12 1008.43 1007.66 1007.24 1006.90 1007.05 1007.40 1007.95 1007.67 1008.06 1008.37 1008.46 1009.81 1009.95 1009.16 1008.55 1008.81 1009.79 1010.47 1011.89 1013.64 1015.42 1017.40 1017.97 1017.07 1016.67 1016.08 1016.34 1017.18 1018.03 1018.70 1019.01 1019.48 1019.97
1018.36 1017.13 1014.46 1014.12 1014.84 1014.75 1014.73 1013.93 1012.46 1010.96 1010.26 1009.42 1008.72 1008.09 1007.50 1007.15 1007.03 1007.33 1007.56 1007.37 1007.43 1008.14 1008.61 1009.83 1010.20 1010.06 1009.46 1009.62 1010.14 1011.28 1012.38 1014.06 1015.58 1016.79 1017.52 1017.52 1016.62 1015.11 1015.83 1016.49 1017.41 1018.34 1018.98 1019.49 1020.21
1018.76 1017.38 1014.70 1014.53 1015.01 1014.96 1014.32 1013.11 1011.99 1010.77 1009.99 1009.43 1008.87 1008.41 1007.91 1007.37 1007.18 1007.19 1007.23 1006.95 1006.96 1007.55 1008.96 1009.40 1010.16 1010.81 1010.64 1010.23 1010.34 1010.87 1012.15 1013.45 1015.37 1017.14 1017.50 1017.11 1015.70 1014.83 1015.49 1016.33 1017.10 1017.93 1018.70 1019.54 1020.14
1019.67 1017.73 1014.82 1014.55 1014.88 1014.64 1013.63 1012.64 1011.67 1010.81 1010.12 1009.66 1008.96 1008.13 1007.70 1007.48 1007.44 1007.13 1006.99 1006.85 1007.01 1007.67 1008.22 1009.23 1010.58 1011.36 1011.43 1011.22 1010.84 1011.39 1012.23 1013.16 1014.57 1015.85 1016.91 1017.01 1015.87 1014.92 1015.42 1016.06 1016.89 1017.81 1018.70 1019.46 1020.35
1020.24 1018.47 1016.08 1015.17 1014.63 1014.04 1013.38 1012.52 1011.62 1010.56 1010.03 1009.50 1008.86 1008.15 1007.89 1007.68 1007.46 1007.36 1007.27 1007.22 1007.34 1007.96 1008.40 1008.94 1010.91 1011.04 1011.40 1011.16 1011.21 1011.69 1012.23 1012.96 1013.47 1015.21 1016.30 1016.10 1015.48 1015.18 1015.50 1015.92 1016.68 1017.62 1018.57 1019.48 1020.28
1020.26 1018.94 1017.67 1016.06 1015.07 1014.13 1013.32 1012.42 1011.81 1011.08 1010.07 1009.44 1008.87 1008.34 1008.04 1008.10 1007.98 1007.88 1007.82 1007.80 1008.05 1008.48 1009.10 1009.84 1011.39 1011.60 1011.69 1011.33 1011.16 1011.68 1012.33 1012.87 1013.31 1014.11 1014.69 1015.00 1015.13 1014.32 1014.60 1015.13 1015.60 1016.83 1018.34 1019.52 1020.42
1020.42 1019.62 1018.13 1016.73 1015.36 1014.36 1013.40 1012.59 1011.99 1011.32 1010.80 1009.53 1008.97 1008.35 1008.05 1008.22 1007.91 1008.11 1008.16 1008.41 1008.52 1009.01 1009.85 1010.90 1012.29 1012.19 1012.57 1012.07 1011.72 1011.98 1012.22 1012.69 1013.13 1013.61 1014.04 1014.32 1014.65 1013.88 1014.38 1014.96 1015.98 1016.79 1017.92 1019.02 1019.97
1020.12 1019.68 1019.08 1017.00 1015.76 1014.68 1013.59 1012.77 1012.09 1011.67 1010.16 1009.47 1009.06 1008.58 1008.36 1008.21 1008.14 1008.35 1008.52 1008.64 1008.94 1009.71 1010.76 1011.56 1012.71 1013.16 1013.52 1013.01 1012.37 1012.20 1012.05 1012.09 1012.72 1013.23 1013.54 1014.44 1014.33 1014.63 1015.05 1015.58 1016.03 1016.70 1017.58 1018.53 1019.43
Wind_Speed
20 20 20 19 18 18 18 18 17 16 14 12 12 11 10 9 10 3 6 11 6 5 6 3 3 2 3 3 2 3 6 1 4 5 4 4 4 3 3 4 1 5 5 6 12
21 21 20 20 19 18 19 18 18 16 14 12 11 10 9 7 2 7 11 9 5 8 4 3 1 3 3 3 2 5 4 8 4 5 5 5 5 9 5 6 3 3 4 13 14
21 21 21 21 22 20 19 19 18 17 15 13 11 9 8 5 3 7 2 12 12 6 4 5 3 2 3 1 3 3 4 5 4 5 8 9 5 6 7 7 9 12 14 15 12
22 22 23 23 23 21 20 20 20 18 15 13 10 8 7 2 2 1 7 11 12 8 4 4 3 3 3 3 3 2 7 5 6 6 7 10 8 7 10 8 10 9 16 16 15
22 23 23 23 23 22 21 20 20 18 15 12 9 6 4 3 9 3 8 13 8 6 5 4 3 4 2 3 3 5 5 7 6 6 7 7 9 7 11 5 9 11 17 17 15
22 23 24 24 23 23 22 21 19 17 15 10 6 3 1 3 3 3 8 6 6 6 5 5 5 5 2 3 3 5 4 7 3 4 6 10 3 6 8 9 10 16 16 15 16
21 22 23 24 24 24 24 23 20 17 13 6 4 2 0 14 2 2 6 5 7 6 5 4 4 3 3 2 2 3 5 7 3 3 3 10 2 14 3 10 11 11 14 15 14
21 22 24 24 25 26 26 25 21 14 7 3 5 1 8 4 2 3 5 3 4 4 1 2 4 2 3 1 7 3 5 4 4 2 3 5 8 11 6 12 10 10 11 12 12
22 23 24 26 26 26 27 25 14 2 4 7 2 2 10 6 3 4 5 4 5 3 4 1 3 2 4 5 5 7 1 2 8 6 4 2 5 11 8 8 9 12 10 12 11
23 24 25 26 27 27 28 16 3 4 3 2 2 3 5 2 3 3 4 3 4 0 2 3 5 3 4 5 4 4 2 3 4 3 2 4 10 5 8 13 18 16 8 10 12
25 25 26 27 28 27 13 3 6 4 1 7 5 4 5 7 3 3 4 7 2 6 1 3 5 3 6 5 3 2 3 3 6 5 4 3 5 8 7 7 9 8 9 10 16
25 26 27 28 28 26 1 6 5 3 9 11 15 8 7 4 5 4 6 6 4 4 2 6 3 8 3 4 4 3 1 5 6 3 1 4 7 5 6 18 17 13 8 9 4
22 24 25 28 32 4 3 3 2 3 3 9 6 7 6 10 9 7 8 6 4 5 4 6 5 6 4 2 3 4 5 4 6 4 4 5 8 7 2 4 3 0 3 6 11
22 22 23 30 4 5 5 6 3 4 5 9 4 7 6 9 5 8 7 8 2 11 7 5 4 5 3 4 6 3 7 5 3 3 1 2 4 4 5 2 5 6 9 10 9
21 21 19 15 6 4 6 9 9 3 4 3 3 2 4 10 5 5 6 5 9 6 7 8 4 3 2 3 4 8 1 4 3 4 4 5 5 7 6 8 10 12 14 14 11
21 20 18 2 3 9 10 11 2 6 9 5 4 4 5 4 4 4 5 5 4 6 1 7 2 2 5 1 5 4 6 9 6 4 4 4 4 6 4 6 2 4 9 11 15
24 22 15 3 7 3 6 4 5 4 5 3 1 4 3 5 4 5 7 7 7 5 2 3 5 3 3 3 2 6 7 3 4 5 6 2 3 6 5 4 4 8 10 11 13
24 26 6 6 6 5 2 6 4 6 6 5 2 3 8 7 6 4 7 6 1 5 4 7 7 6 4 8 6 5 8 8 6 4 5 3 4 4 2 5 8 9 9 11 12
25 3 4 4 10 1 6 3 9 7 4 6 6 1 3 3 5 4 6 9 10 8 8 6 6 4 4 4 6 3 3 4 9 4 3 2 2 5 4 5 6 7 9 9 10
4 4 5 2 9 3 5 6 5 3 5 4 3 1 3 1 4 7 8 5 6 11 8 8 1 2 3 5 4 4 4 4 3 6 4 4 2 5 4 5 6 6 7 9 8
2 4 3 5 2 5 6 7 5 7 5 2 2 3 1 2 4 5 7 4 6 5 6 6 5 6 1 1 6 2 0 7 7 4 7 3 7 6 8 7 9 8 8 9 8
3 2 3 3 4 0 5 7 4 3 2 4 3 6 5 2 3 3 7 6 4 9 11 8 7 4 6 3 2 2 5 5 7 4 2 3 8 3 6 4 9 10 10 7 8
3 4 4 3 3 2 3 3 5 3 5 4 4 7 5 6 3 3 2 3 4 6 9 9 1 3 7 6 1 5 2 4 7 4 5 7 7 3 3 4 8 10 9 9 8
2 3 4 1 1 4 4 4 3 2 7 5 5 3 2 3 3 4 1 5 3 4 7 9 4 8 11 7 3 4 3 3 6 5 5 5 3 5 8 7 8 8 8 8 9
0 3 1 3 2 2 2 2 2 3 3 4 4 7 5 4 2 2 1 2 5 4 5 5 5 4 4 3 4 4 3 2 2 5 5 3 7 7 13 15 14 8 8 10 10
1 2 4 3 3 3 5 4 5 5 5 6 3 1 7 6 8 7 5 2 2 6 4 3 2 2 4 3 6 4 1 4 4 5 3 4 7 4 4 7 8 10 12 12 11
2 2 1 4 3 2 5 4 4 1 6 7 3 2 4 3 3 2 2 5 4 6 3 4 6 3 3 1 5 3 5 5 1 2 5 3 7 3 3 5 7 9 12 13 12
Wind_Direction
1 358 355 350 346 344 342 340 339 336 330 327 322 314 307 303 294 168 239 218 191 119 141 117 103 136 73 70 62 122 65 169 207 167 242 147 125 131 127 112 176 191 163 170 139
358 355 352 349 345 340 340 338 337 336 329 326 321 314 306 317 264 238 244 182 134 146 122 145 115 124 58 103 36 90 110 212 211 189 188 186 132 149 138 149 238 168 92 122 152
356 352 349 347 343 339 336 336 335 335 329 325 322 314 304 315 317 248 311 191 165 165 120 151 126 102 89 94 176 171 193 201 235 205 162 162 167 173 128 188 210 180 159 156 161
352 350 347 344 340 335 333 332 332 333 329 323 320 311 304 253 214 339 330 172 143 154 111 113 101 94 119 172 167 137 237 185 252 204 147 168 141 193 186 193 188 160 163 162 172
349 347 345 340 336 333 331 328 328 327 324 318 312 299 291 10 253 334 59 128 114 122 148 160 133 132 162 200 161 190 241 203 247 209 194 147 189 194 219 149 148 146 165 177 185
346 345 342 337 333 331 329 324 323 321 316 308 294 274 244 271 248 31 112 115 126 125 179 159 188 201 187 212 176 210 260 274 275 239 198 155 228 150 232 148 158 164 171 187 189
344 342 339 335 332 329 326 323 319 313 307 295 235 226 109 238 112 118 153 164 166 160 159 212 165 137 135 279 260 325 330 333 54 160 128 124 97 224 166 155 163 176 179 189 196
343 341 338 335 330 328 325 322 315 305 288 201 170 215 248 253 319 144 151 145 192 225 217 199 142 163 168 316 14 34 48 13 301 341 169 74 238 254 194 164 171 185 187 191 204
342 341 337 334 330 327 325 322 323 87 136 143 124 126 269 315 277 205 153 163 159 209 243 192 116 101 41 86 17 2 152 344 325 0 126 70 251 257 166 174 186 207 198 202 209
341 339 336 332 328 327 325 315 271 100 101 211 276 11 278 326 253 194 160 109 107 242 56 91 54 77 42 72 215 205 109 319 272 260 100 186 250 250 191 179 197 204 201 206 212
340 338 336 331 327 328 339 32 14 360 39 204 199 245 277 284 335 240 138 106 77 46 83 17 66 213 236 187 154 138 147 228 246 248 221 228 256 254 211 204 201 205 207 217 224
336 337 336 329 324 322 298 80 89 231 302 238 243 247 249 67 323 300 131 119 113 181 99 19 242 223 186 171 187 202 256 276 286 316 156 10 301 297 212 215 202 203 226 242 281
332 335 335 329 321 10 307 90 16 120 225 282 204 207 193 145 206 249 145 126 139 146 172 165 230 110 167 198 192 210 190 233 207 331 36 8 325 346 346 62 78 131 250 236 227
330 333 337 332 42 328 282 333 299 194 28 274 244 263 142 148 233 201 180 138 142 182 166 221 245 205 161 236 168 295 210 205 230 103 194 51 275 328 353 267 233 6 342 317 299
326 328 335 336 295 309 287 330 324 101 341 245 196 137 164 163 161 220 182 72 166 173 118 242 175 142 183 164 145 242 66 144 76 80 61 344 73 269 3 24 9 4 351 351 319
320 323 330 358 286 247 326 314 48 50 253 322 135 157 140 227 192 118 137 77 154 130 102 215 264 230 212 178 186 145 65 44 52 70 40 270 122 301 2 289 311 29 24 43 66
316 313 304 269 236 92 321 21 59 167 316 305 109 148 207 189 174 152 150 147 153 136 213 328 249 239 178 313 62 78 62 355 4 19 216 316 61 244 304 342 42 40 52 67 81
314 310 257 211 235 260 353 55 175 231 257 297 318 268 184 156 216 136 133 158 172 111 111 171 318 176 174 185 183 169 152 152 187 180 246 78 216 257 7 106 81 76 84 87 92
321 315 273 257 193 197 88 135 203 210 284 332 321 252 228 184 149 128 186 187 185 166 162 137 265 279 211 146 129 170 169 175 101 10 72 240 315 309 122 91 91 101 107 97 98
318 332 266 125 156 120 93 229 236 239 346 353 262 37 179 175 132 154 177 211 211 183 144 206 4 245 280 97 42 141 156 81 21 133 192 294 244 234 200 154 145 141 142 141 134
6 349 298 133 162 51 165 222 270 253 230 250 286 300 268 176 134 171 185 241 198 158 132 132 121 272 341 118 178 141 155 59 109 114 149 168 260 211 195 176 182 181 178 162 146
346 326 352 103 78 306 164 191 231 268 27 286 246 228 242 241 163 152 187 211 160 152 157 195 152 190 224 290 246 143 147 126 117 214 72 146 268 196 187 125 168 187 175 160 155
340 272 320 82 157 232 263 240 215 236 225 238 263 204 202 206 171 173 193 21 117 146 163 178 211 97 351 354 20 97 92 118 110 96 185 125 261 332 186 181 183 179 174 166 149
340 334 317 112 219 173 177 230 237 266 251 225 256 230 188 196 26 160 81 5 44 78 69 86 99 163 205 197 149 139 139 151 118 114 164 214 244 248 234 214 189 188 176 167 156
169 262 206 235 267 211 234 180 201 324 261 210 254 217 187 145 72 140 106 356 41 8 56 93 111 111 79 74 97 111 131 188 97 142 136 223 208 245 214 207 205 169 148 157 162
269 350 340 276 293 203 180 232 220 253 216 269 249 260 169 176 175 192 145 171 178 15 71 34 144 116 58 36 109 115 132 192 192 154 249 152 252 242 340 123 162 176 165 170 170
297 299 127 288 305 140 200 211 193 28 260 242 269 253 158 157 122 46 64 114 139 146 114 86 134 93 186 316 176 17 234 182 148 146 126 169 241 333 297 236 200 180 175 174 161